Vertical_Velocity
32 37 39 38 28 14 3 -2 -0 0 2 3 2 1 -1 -1 -1 -2 -2 -3 -2 -2 -1 1 2 2 2 1 1 -0 1 8 26 31 24 9 2 -2 -2 -2 2 4 3 -1 -3 -4 -3 -3 -4 -5 -5 -4 -2 -0 2 5 10 12 13 12 10 8 5 3 2 2 2 1 -0
4 12 20 30 31 26 18 8 3 2 3 7 9 6 2 -1 -2 -2 -2 -2 -1 -0 1 2 1 1 0 0 -0 -1 2 13 24 28 27 20 9 3 -0 1 4 3 1 -3 -4 -3 -2 -3 -3 -1 2 4 5 6 6 8 12 14 13 11 9 7 5 3 1 1 1 0 -1
2 5 11 20 26 28 27 23 13 7 5 8 15 15 11 4 -1 -2 -1 0 0 -0 -0 1 -0 -0 -1 -1 -2 -2 1 11 15 19 21 21 15 13 12 12 8 3 -2 -5 -3 -0 1 2 6 10 12 11 9 7 7 8 11 12 11 8 7 5 4 2 0 0 1 1 0
6 7 7 7 10 13 17 21 18 14 11 15 21 23 21 16 9 8 8 6 7 3 -1 -3 -2 -2 -2 -3 -3 -2 0 6 9 10 12 13 13 16 18 17 10 3 -2 -3 -0 4 8 13 16 15 12 8 5 4 4 7 10 10 8 5 5 4 2 0 -0 0 1 0 0
13 9 4 1 0 0 2 6 9 12 16 22 26 26 25 21 21 21 19 11 10 6 -0 -6 -4 -4 -4 -4 -4 -3 -1 2 3 3 4 7 10 13 15 12 8 4 2 1 4 9 14 18 15 11 6 3 1 1 3 6 7 6 4 3 3 2 1 -0 -0 0 1 0 0
29 19 7 -1 -0 -2 -4 -4 1 6 10 14 16 21 24 22 22 21 17 7 4 -0 -4 -6 -6 -5 -5 -5 -6 -6 -4 1 2 1 2 4 10 14 17 15 13 11 9 8 10 13 15 15 10 6 2 1 1 2 4 5 5 4 2 2 2 1 1 1 -0 0 1 1 0
33 29 19 5 3 1 -2 -6 -4 -1 1 3 4 8 12 15 14 9 2 -6 -5 -5 -4 -5 -6 -6 -6 -6 -6 -6 -3 1 2 1 0 4 14 21 25 24 23 20 17 12 13 14 13 10 6 2 1 1 1 2 3 4 3 2 2 2 1 1 2 0 -0 1 1 0 -0
22 24 24 19 12 6 2 -3 -4 -5 -5 -3 -2 -1 1 2 2 -2 -5 -1 2 4 4 -0 -3 -5 -5 -5 -4 -3 -1 2 1 -1 -1 3 19 29 31 26 21 17 13 11 12 12 10 6 2 1 1 1 1 1 1 2 2 1 1 1 1 2 2 0 0 0 0 -1 -0
13 14 17 24 22 17 11 4 1 -1 -2 -2 -2 -2 -4 -6 -6 -4 -1 6 15 17 14 6 2 -1 -3 -4 -3 -1 -0 1 -1 -1 0 6 22 30 29 20 13 8 7 8 8 8 6 3 1 1 1 1 1 1 1 1 1 1 1 1 2 2 1 1 0 -0 -1 -1 -1
12 10 10 15 22 22 18 11 10 10 8 6 6 3 -0 -4 -5 -4 -1 3 11 13 10 5 1 -1 -2 -2 -1 -1 -0 -0 1 2 4 8 16 21 21 14 7 4 3 4 5 5 4 2 2 1 1 1 1 1 1 2 2 1 1 1 2 2 1 -0 -1 -1 -2 -2 -1
10 10 8 6 11 14 16 14 13 13 13 12 12 11 8 3 -1 -3 -2 -1 -1 -1 -1 -0 -0 -0 -0 0 1 2 3 5 6 6 6 5 7 9 10 7 4 2 2 3 4 4 3 2 1 1 0 -0 0 1 2 3 3 2 1 1 2 1 0 -1 -2 -2 -3 -3 -2
6 9 9 6 4 5 6 6 7 8 8 9 10 10 10 7 2 0 0 1 0 0 1 2 2 3 3 4 5 7 9 10 8 6 4 2 3 4 6 8 8 8 6 5 4 3 2 1 1 -0 -1 -1 0 2 4 4 3 2 2 1 2 1 -0 -1 -2 -3 -4 -3 -1
3 6 8 9 6 4 3 0 0 1 3 4 6 7 8 7 6 5 4 4 3 2 1 1 1 2 3 4 6 7 7 6 3 1 1 3 4 7 10 13 13 12 9 6 4 2 1 1 -0 -1 -1 -1 0 2 4 3 2 2 1 1 1 1 -0 -2 -3 -3 -3 -2 0
1 3 6 8 8 8 6 4 0 -1 -1 1 3 5 6 6 5 5 5 4 3 2 1 -0 -0 -0 -0 -0 0 2 2 2 1 0 1 4 6 9 10 10 9 7 6 4 2 1 1 -0 -1 -2 -2 -2 1 3 3 2 0 -0 -0 1 1 -0 -1 -2 -3 -3 -2 -1 1
0 1 3 5 7 8 8 7 4 1 -1 -2 -1 1 3 3 2 2 3 3 3 3 3 3 1 -0 -1 -2 -1 0 2 4 3 2 2 2 3 4 3 3 2 2 1 1 1 0 -1 -1 -2 -3 -4 -3 -1 2 3 2 -0 -1 -1 0 1 0 -0 -1 -2 -2 -2 0 4
0 1 2 2 4 6 7 7 7 5 2 -1 -2 -1 -1 -1 -1 -1 -1 -1 -0 1 2 3 2 2 1 0 0 1 3 5 5 4 3 2 1 0 -0 -1 -1 -1 -1 -1 -1 -1 -1 -2 -3 -3 -4 -5 -3 -1 2 3 1 -0 -1 1 2 2 1 -1 -2 -2 -0 4 7
2 0 0 1 2 3 4 6 7 7 5 3 1 -0 -1 -2 -2 -3 -4 -4 -4 -3 -2 -0 1 1 1 1 0 -0 0 2 4 4 3 2 1 -0 -1 -2 -2 -3 -3 -3 -2 -2 -2 -2 -3 -3 -4 -5 -5 -3 -1 1 2 2 2 3 4 4 1 -1 -2 -1 1 8 8
5 3 0 -0 1 1 2 3 4 6 6 5 3 1 0 -1 -1 -2 -2 -3 -3 -4 -3 -3 -2 -1 -0 -0 -1 -2 -2 -1 1 2 2 1 1 -0 -1 -2 -3 -3 -3 -2 -2 -2 -2 -2 -3 -3 -4 -4 -4 -4 -3 -1 2 4 6 8 7 5 2 -1 -1 0 4 9 7
4 5 4 -0 -0 0 1 1 2 3 4 5 4 3 1 0 -0 -1 -1 -1 -1 -1 -1 -1 -1 -1 -0 -1 -1 -3 -3 -2 -0 1 1 1 -0 -1 -2 -2 -3 -3 -2 -1 -0 -1 -2 -2 -3 -3 -4 -3 -3 -4 -4 -3 0 4 8 11 9 5 1 -1 -1 2 6 9 5
-0 3 6 5 1 -0 -1 -0 0 1 2 3 4 4 4 2 1 -0 -0 -0 -0 -0 1 1 2 2 1 1 -0 -1 -2 -2 0 1 1 0 -0 -1 -2 -3 -3 -3 -2 -0 0 -0 -1 -2 -2 -3 -3 -2 -2 -2 -3 -2 -0 4 7 10 7 4 0 -1 0 4 7 8 4
-1 -1 2 6 6 3 -0 -1 -1 -1 -0 1 2 4 4 4 3 2 1 -0 -0 -0 -0 0 1 2 3 3 2 1 0 -0 1 1 1 0 -0 -1 -2 -3 -4 -3 -2 -1 -0 -0 -0 -1 -1 -1 -1 -0 0 -0 -1 -1 1 4 6 7 4 1 -1 -1 2 5 8 7 3
-0 -1 -1 0 4 5 4 1 -1 -2 -2 -2 -1 0 1 3 4 4 3 2 1 1 -0 -0 -0 1 2 3 3 2 2 1 1 1 0 0 -0 -1 -1 -2 -2 -2 -2 -1 -1 -0 -0 0 0 1 2 3 3 2 1 1 3 5 6 6 2 -0 -1 -1 2 6 7 6 2
-1 -1 -1 -2 -0 2 5 5 3 1 -0 -2 -2 -2 -1 -0 0 1 2 3 3 2 1 -0 -1 -1 -0 0 1 1 1 1 1 0 -0 -0 -0 -0 -0 -0 -0 -0 -0 -0 0 0 0 1 1 2 4 5 5 4 2 2 4 6 6 5 2 -0 -1 -1 2 5 6 4 1
-3 -2 -1 -1 -2 -1 1 4 6 5 4 2 -0 -1 -2 -2 -1 -0 0 1 0 0 -0 -1 -1 -1 -1 -1 -0 -0 0 1 1 0 -0 -0 0 1 1 1 1 1 1 1 1 1 1 0 0 1 3 6 6 5 3 2 3 5 6 4 1 -1 -2 -1 2 5 5 3 1
-4 -4 -3 -1 -1 -1 -1 -0 3 5 6 5 3 2 0 -1 -1 -1 -1 -0 -1 -1 -1 -2 -2 -2 -1 -1 -1 -1 -0 -0 0 0 0 0 1 1 1 1 1 1 1 1 1 1 -0 -1 -0 1 3 6 7 6 4 2 2 3 4 3 1 -1 -1 -0 3 4 4 2 1
-4 -5 -4 -3 -2 -1 -1 -1 -1 1 4 6 6 5 3 2 1 -0 -1 -1 -1 -1 -1 -1 -1 -1 -1 -1 -2 -2 -2 -2 -1 -1 -0 0 0 1 1 1 1 1 1 1 0 -0 -0 -1 -0 1 3 6 7 7 5 2 1 1 2 2 1 0 0 2 4 4 3 1 1
-4 -4 -5 -5 -4 -2 -1 -1 -1 -1 0 3 5 6 6 4 3 2 1 0 -1 -1 -1 -0 1 1 0 -0 -1 -2 -3 -3 -2 -2 -2 -1 -1 -1 -1 -1 -0 0 1 1 -0 -1 -1 -0 0 2 3 5 6 7 6 3 1 0 1 2 2 2 3 4 5 4 3 2 1
-5 -5 -4 -5 -5 -4 -3 -1 -1 -1 -1 -0 2 4 6 7 6 5 4 2 1 0 0 1 1 2 2 2 1 0 0 -0 -0 -0 -0 -0 -0 -0 -0 -0 0 0 0 -0 -1 -1 -1 0 2 3 4 5 5 5 5 4 2 1 1 2 3 4 5 6 5 4 3 2 1
-7 -6 -5 -4 -4 -5 -4 -3 -2 -1 -1 -1 -1 1 3 5 6 6 6 5 4 3 2 2 1 2 3 4 4 4 4 3 3 3 4 3 3 3 2 2 1 0 -0 -1 -2 -1 0 1 3 4 6 6 6 6 6 6 4 2 1 2 4 6 6 6 5 3 2 1 1
-7 -7 -6 -5 -4 -4 -4 -4 -3 -2 -1 -1 -1 -1 -0 2 4 6 6 7 6 5 4 3 3 3 3 4 5 6 6 6 6 6 6 6 6 5 4 3 2 0 -1 -2 -2 -0 1 2 4 4 5 6 6 6 6 6 3 2 1 2 5 6 7 6 4 2 1 1 2
-6 -7 -7 -6 -5 -4 -4 -4 -4 -3 -1 -1 -1 -1 -2 -2 0 2 4 6 6 6 6 5 4 4 3 3 4 5 6 6 6 6 6 6 6 5 4 3 2 0 -1 -2 -1 -0 2 3 3 2 2 1 2 2 2 2 1 1 2 4 7 8 8 6 4 2 1 2 3
-5 -6 -6 -6 -6 -5 -4 -4 -4 -3 -2 -1 -0 -0 -1 -2 -2 -1 1 3 5 5 6 6 6 5 4 4 4 4 5 5 5 5 4 4 4 4 4 3 1 -0 -1 -2 -1 -0 1 1 1 0 -0 -1 -0 -0 -0 0 0 1 3 6 8 9 9 8 5 3 2 2 5
-5 -5 -6 -6 -6 -5 -5 -4 -4 -4 -3 -2 -1 0 0 -0 -2 -3 -2 -1 2 3 4 5 5 5 5 5 5 4 4 4 4 4 4 4 3 3 3 2 1 -1 -2 -2 -1 0 1 1 0 0 0 1 1 1 1 0 0 1 3 6 8 8 8 7 5 3 2 4 7
-4 -5 -5 -5 -5 -5 -5 -4 -3 -3 -3 -3 -2 -1 1 1 0 -1 -2 -3 -1 0 2 3 4 4 4 4 4 4 4 4 4 4 4 4 4 4 3 1 -0 -1 -2 -1 -0 0 1 0 0 1 2 3 4 3 2 1 1 1 3 6 7 8 7 6 4 2 2 4 7
-4 -4 -5 -5 -5 -5 -4 -4 -3 -3 -3 -3 -3 -2 -1 1 1 1 -0 -2 -2 -2 -1 1 2 3 4 4 4 4 4 4 3 4 4 5 5 5 4 2 1 -0 -0 0 1 1 1 1 1 2 3 4 4 4 4 3 2 3 4 7 8 8 7 4 2 1 1 3 5
-3 -4 -4 -5 -5 -4 -4 -4 -3 -2 -2 -3 -3 -3 -2 -1 0 1 1 0 -1 -2 -2 -2 0 2 3 4 4 4 4 4 4 4 4 5 6 6 6 4 3 2 2 2 2 2 1 1 1 2 2 3 4 4 4 4 4 4 6 8 10 10 9 7 5 3 3 4 6
-3 -3 -4 -4 -4 -4 -4 -3 -3 -2 -2 -2 -2 -3 -3 -2 -1 0 1 2 0 -1 -2 -3 -2 -0 1 3 4 4 5 6 6 6 6 6 6 7 7 6 4 4 3 4 3 3 2 2 2 2 2 2 2 2 2 2 3 4 5 8 10 12 13 12 11 10 10 11 11
-3 -3 -3 -4 -4 -4 -4 -3 -2 -2 -1 -1 -1 -1 -2 -3 -2 -1 -0 1 1 0 -1 -2 -2 -2 -1 1 3 4 5 6 7 7 7 7 7 7 7 7 6 5 4 4 4 3 3 3 3 3 2 2 2 2 1 1 1 2 3 4 7 10 12 14 14 14 14 14 13
-3 -3 -3 -3 -4 -4 -4 -4 -3 -2 -1 -0 0 0 -0 -1 -2 -2 -1 0 1 1 -0 -1 -2 -2 -2 -1 1 2 4 6 7 8 8 8 8 8 8 8 7 6 5 5 4 4 3 3 4 4 3 2 2 2 2 2 2 1 1 1 2 4 6 8 8 9 8 8 7
-3 -3 -3 -3 -4 -4 -4 -4 -3 -2 -1 0 1 1 1 0 -1 -1 -1 -1 -0 0 0 -0 -1 -1 -2 -2 -1 0 2 4 6 7 7 8 8 8 9 9 8 7 6 6 5 4 3 3 3 3 3 3 3 3 3 3 3 2 2 1 0 0 1 1 2 2 2 1 1
-3 -3 -3 -3 -3 -4 -4 -4 -4 -3 -2 -0 1 1 2 2 1 -0 -1 -1 -1 -0 0 0 -0 -1 -1 -2 -2 -1 -0 1 4 5 6 7 8 8 9 9 9 9 8 7 6 5 4 2 2 2 2 3 3 3 4 4 3 3 2 2 1 1 0 0 0 0 0 0 -0
Height
5573 5572 5572 5571 5570 5568 5565 5563 5563 5563 5564 5567 5569 5572 5576 5579 5583 5587 5591 5595 5599 5604 5609 5614 5619 5624 5628 5633 5637 5640 5643 5645 5650 5654 5658 5661 5663 5665 5668 5669 5671 5673 5675 5678 5678 5679 5679 5681 5683 5684 5685 5686 5687 5688 5688 5689 5689 5690 5692 5693 5695 5696 5697 5698 5700 5702 5703 5705 5707
5574 5575 5574 5572 5571 5570 5569 5568 5567 5566 5567 5569 5573 5576 5579 5582 5586 5589 5594 5598 5603 5607 5612 5617 5621 5625 5630 5634 5638 5641 5643 5646 5650 5653 5657 5659 5662 5664 5667 5669 5671 5673 5674 5674 5675 5676 5677 5679 5680 5682 5683 5684 5685 5686 5687 5687 5688 5689 5691 5692 5693 5694 5696 5697 5698 5699 5701 5703 5705
5575 5577 5579 5579 5577 5575 5573 5573 5572 5571 5572 5573 5576 5580 5584 5588 5591 5595 5599 5603 5607 5612 5616 5620 5624 5628 5632 5635 5639 5641 5643 5647 5651 5653 5655 5657 5660 5664 5668 5670 5671 5672 5672 5671 5672 5673 5675 5677 5678 5680 5681 5683 5684 5685 5685 5686 5687 5688 5690 5691 5692 5693 5694 5695 5696 5698 5699 5701 5703
5577 5579 5581 5582 5581 5580 5579 5578 5577 5577 5578 5578 5581 5584 5587 5591 5596 5600 5603 5607 5611 5616 5620 5623 5627 5630 5634 5637 5640 5642 5644 5648 5651 5653 5654 5656 5659 5663 5666 5669 5670 5669 5669 5669 5670 5672 5673 5675 5676 5678 5680 5681 5682 5683 5683 5685 5686 5687 5688 5689 5690 5691 5692 5693 5694 5695 5697 5699 5701
5579 5581 5582 5583 5582 5582 5582 5582 5582 5582 5583 5585 5587 5589 5591 5594 5598 5602 5606 5610 5613 5618 5622 5625 5629 5632 5635 5638 5640 5642 5645 5648 5650 5651 5653 5656 5658 5661 5664 5666 5666 5666 5667 5667 5668 5670 5671 5673 5675 5677 5678 5679 5680 5681 5682 5683 5684 5685 5686 5687 5687 5688 5689 5690 5692 5693 5695 5697 5699
5583 5583 5583 5583 5583 5583 5584 5585 5586 5587 5588 5590 5591 5593 5596 5599 5602 5605 5609 5613 5617 5621 5625 5628 5631 5634 5637 5639 5640 5643 5645 5647 5648 5651 5653 5655 5657 5659 5662 5663 5663 5664 5664 5665 5666 5668 5669 5671 5673 5675 5676 5677 5678 5679 5680 5681 5682 5683 5683 5684 5685 5686 5687 5688 5689 5691 5693 5695 5697
5587 5587 5585 5584 5585 5586 5587 5588 5589 5590 5592 5594 5597 5598 5600 5603 5606 5608 5612 5616 5620 5624 5627 5630 5632 5635 5637 5639 5641 5643 5645 5647 5649 5651 5653 5653 5655 5658 5659 5659 5660 5660 5662 5663 5664 5666 5668 5670 5672 5673 5673 5675 5676 5677 5678 5679 5680 5681 5682 5682 5683 5684 5685 5686 5688 5689 5691 5693 5694
5591 5591 5591 5589 5588 5589 5591 5592 5593 5594 5595 5597 5601 5603 5605 5607 5609 5612 5615 5618 5620 5623 5626 5629 5632 5635 5638 5640 5642 5644 5646 5648 5650 5651 5651 5653 5655 5656 5656 5656 5657 5658 5660 5662 5664 5666 5667 5668 5669 5671 5672 5673 5674 5676 5677 5678 5678 5679 5680 5680 5681 5682 5683 5684 5685 5687 5689 5690 5692
5593 5594 5594 5594 5593 5593 5595 5597 5598 5599 5600 5601 5603 5606 5608 5611 5613 5614 5616 5618 5620 5624 5627 5629 5632 5635 5638 5640 5642 5644 5646 5647 5648 5649 5650 5653 5655 5655 5655 5655 5656 5658 5660 5662 5663 5665 5666 5667 5668 5669 5670 5672 5673 5674 5675 5676 5676 5677 5678 5678 5679 5680 5681 5682 5683 5685 5686 5688 5689
5596 5596 5597 5597 5598 5598 5599 5600 5602 5603 5604 5605 5606 5608 5610 5612 5614 5616 5618 5620 5623 5625 5627 5629 5632 5634 5637 5639 5641 5643 5644 5645 5647 5648 5650 5653 5653 5654 5654 5655 5656 5658 5659 5661 5662 5663 5664 5665 5666 5668 5669 5670 5671 5672 5673 5674 5674 5675 5676 5676 5677 5678 5679 5680 5681 5682 5683 5685 5687
5598 5598 5599 5599 5599 5600 5602 5603 5604 5606 5607 5608 5609 5611 5612 5614 5616 5617 5619 5622 5624 5625 5627 5629 5632 5634 5636 5638 5640 5642 5643 5645 5647 5648 5649 5651 5651 5652 5653 5655 5656 5657 5658 5659 5660 5662 5663 5663 5665 5666 5667 5668 5669 5670 5671 5672 5672 5673 5673 5674 5675 5676 5677 5678 5679 5680 5681 5683 5684
5600 5601 5601 5602 5602 5603 5604 5605 5607 5608 5610 5612 5613 5614 5615 5617 5618 5620 5622 5624 5626 5628 5629 5631 5632 5634 5636 5638 5640 5641 5643 5645 5646 5647 5648 5649 5650 5651 5653 5653 5654 5655 5656 5657 5658 5659 5660 5662 5663 5664 5665 5666 5667 5668 5669 5669 5670 5671 5672 5672 5673 5674 5675 5676 5677 5678 5679 5681 5683
5603 5603 5603 5603 5604 5605 5606 5607 5609 5611 5612 5614 5615 5616 5617 5619 5621 5623 5624 5626 5628 5629 5631 5632 5633 5635 5637 5638 5640 5642 5643 5644 5644 5645 5646 5648 5650 5651 5653 5653 5653 5653 5654 5655 5656 5657 5658 5660 5661 5662 5663 5664 5665 5666 5666 5667 5668 5669 5669 5670 5671 5672 5673 5674 5675 5676 5677 5679 5681
5605 5605 5605 5605 5606 5607 5608 5608 5610 5612 5613 5615 5616 5618 5619 5620 5622 5624 5626 5627 5629 5630 5632 5633 5634 5636 5638 5639 5640 5641 5642 5643 5643 5643 5644 5646 5648 5650 5651 5651 5651 5651 5652 5653 5654 5656 5657 5658 5659 5660 5661 5662 5663 5663 5664 5664 5665 5666 5667 5668 5669 5670 5671 5672 5673 5674 5676 5677 5679
5607 5607 5607 5608 5608 5608 5609 5610 5611 5613 5614 5615 5617 5618 5620 5621 5623 5624 5626 5628 5629 5631 5632 5634 5635 5637 5638 5638 5640 5640 5641 5641 5641 5641 5642 5643 5645 5647 5648 5649 5649 5649 5650 5651 5653 5654 5655 5656 5657 5658 5658 5659 5660 5661 5662 5662 5663 5663 5664 5665 5667 5668 5669 5670 5671 5673 5674 5676 5678
5608 5608 5608 5609 5609 5609 5610 5611 5612 5613 5615 5616 5618 5618 5620 5621 5623 5625 5626 5628 5629 5630 5632 5633 5635 5636 5637 5637 5638 5639 5639 5639 5639 5640 5641 5642 5643 5645 5646 5647 5648 5648 5649 5650 5651 5653 5653 5654 5655 5656 5656 5657 5658 5658 5660 5660 5661 5661 5662 5663 5664 5666 5667 5668 5669 5670 5672 5674 5676
5610 5609 5609 5610 5610 5611 5611 5612 5613 5614 5615 5617 5618 5619 5620 5621 5622 5624 5625 5627 5628 5629 5631 5632 5633 5634 5635 5635 5636 5637 5638 5638 5638 5639 5640 5641 5643 5644 5645 5645 5646 5646 5647 5648 5649 5651 5651 5652 5653 5653 5654 5655 5655 5656 5657 5658 5659 5659 5659 5660 5662 5664 5665 5666 5667 5668 5670 5672 5674
5612 5612 5611 5611 5611 5611 5612 5613 5613 5614 5615 5616 5618 5619 5620 5621 5622 5623 5624 5626 5627 5628 5629 5630 5631 5632 5633 5634 5635 5636 5636 5636 5636 5637 5638 5640 5641 5642 5643 5644 5644 5645 5646 5647 5648 5649 5650 5650 5651 5652 5652 5653 5653 5654 5654 5655 5656 5657 5658 5658 5660 5662 5663 5664 5665 5666 5668 5670 5671
5613 5613 5613 5612 5612 5612 5612 5613 5613 5614 5615 5616 5617 5618 5619 5620 5621 5622 5623 5624 5625 5627 5628 5629 5630 5631 5632 5633 5633 5634 5634 5634 5635 5635 5637 5638 5639 5640 5641 5642 5643 5643 5644 5645 5646 5647 5648 5648 5649 5650 5650 5651 5651 5652 5652 5653 5653 5654 5656 5657 5658 5660 5661 5662 5663 5663 5665 5667 5668
5614 5614 5614 5614 5613 5613 5613 5613 5613 5614 5615 5615 5616 5617 5618 5619 5620 5621 5622 5623 5623 5625 5626 5627 5628 5629 5630 5631 5631 5632 5633 5633 5633 5634 5635 5636 5637 5638 5639 5640 5641 5641 5641 5643 5644 5645 5646 5646 5647 5648 5648 5649 5649 5650 5650 5650 5651 5652 5653 5655 5656 5657 5658 5659 5660 5661 5663 5665 5666
5615 5615 5615 5615 5615 5614 5613 5613 5613 5613 5614 5615 5615 5616 5617 5618 5619 5620 5621 5621 5622 5623 5624 5625 5626 5627 5628 5628 5629 5630 5630 5631 5632 5632 5633 5634 5635 5636 5637 5638 5638 5638 5639 5640 5641 5642 5643 5644 5644 5645 5646 5647 5648 5648 5648 5648 5649 5649 5651 5652 5653 5654 5655 5656 5657 5659 5661 5662 5663
5615 5615 5615 5615 5615 5615 5614 5613 5613 5613 5613 5614 5615 5615 5615 5616 5617 5618 5619 5620 5620 5621 5622 5623 5623 5624 5625 5626 5627 5628 5628 5629 5629 5630 5631 5632 5633 5634 5634 5635 5635 5636 5637 5638 5638 5639 5640 5641 5642 5643 5643 5644 5645 5646 5646 5646 5646 5647 5648 5649 5650 5651 5653 5653 5655 5656 5658 5659 5660
5614 5615 5615 5615 5615 5615 5615 5615 5614 5613 5613 5613 5613 5613 5614 5614 5615 5616 5617 5618 5618 5619 5620 5620 5621 5622 5622 5623 5624 5625 5626 5626 5627 5628 5628 5629 5630 5631 5632 5633 5633 5634 5635 5636 5637 5637 5638 5638 5639 5640 5641 5642 5643 5643 5643 5643 5644 5645 5646 5647 5648 5649 5650 5651 5652 5653 5655 5657 5658
5614 5614 5614 5614 5614 5615 5615 5615 5615 5614 5613 5613 5613 5613 5613 5613 5613 5613 5614 5615 5615 5616 5617 5618 5618 5619 5620 5621 5622 5622 5623 5624 5624 5625 5626 5627 5628 5629 5630 5630 5631 5632 5633 5633 5634 5634 5635 5636 5637 5637 5638 5639 5640 5640 5641 5641 5641 5642 5643 5644 5645 5646 5647 5648 5649 5651 5653 5654 5655
5613 5613 5613 5613 5613 5614 5614 5614 5614 5614 5614 5613 5613 5612 5612 5612 5612 5612 5612 5612 5613 5613 5614 5614 5615 5616 5617 5618 5618 5619 5620 5621 5622 5623 5623 5624 5625 5626 5627 5627 5628 5628 5629 5630 5631 5631 5632 5633 5633 5634 5635 5636 5637 5638 5638 5638 5638 5639 5640 5641 5642 5643 5644 5645 5646 5648 5650 5651 5652
5613 5612 5612 5612 5612 5613 5613 5613 5613 5613 5613 5613 5613 5612 5612 5611 5611 5611 5611 5611 5611 5611 5611 5612 5613 5613 5614 5615 5616 5617 5617 5618 5619 5620 5621 5621 5622 5623 5623 5624 5624 5625 5626 5627 5627 5628 5629 5629 5630 5631 5632 5633 5634 5635 5635 5635 5636 5636 5637 5638 5639 5640 5641 5642 5644 5645 5647 5648 5649
5612 5611 5611 5611 5611 5611 5611 5611 5611 5611 5611 5611 5611 5611 5611 5611 5610 5610 5610 5610 5610 5610 5610 5610 5610 5611 5612 5613 5613 5614 5615 5615 5616 5617 5618 5618 5619 5619 5620 5621 5621 5622 5623 5623 5624 5625 5626 5627 5627 5628 5629 5630 5631 5631 5632 5632 5633 5633 5634 5635 5636 5637 5638 5639 5641 5643 5644 5646 5647
5610 5610 5610 5609 5609 5609 5609 5609 5609 5609 5609 5609 5609 5609 5609 5609 5609 5609 5609 5609 5609 5609 5609 5609 5610 5610 5611 5611 5612 5612 5613 5613 5614 5615 5615 5616 5617 5617 5617 5618 5618 5619 5620 5620 5621 5622 5623 5623 5624 5625 5625 5626 5627 5628 5628 5629 5630 5630 5631 5632 5633 5634 5636 5637 5639 5640 5642 5643 5644
5608 5608 5608 5608 5608 5608 5607 5607 5607 5607 5607 5607 5607 5607 5607 5607 5607 5607 5607 5607 5607 5608 5608 5608 5608 5609 5609 5610 5610 5611 5611 5611 5611 5612 5613 5613 5614 5614 5615 5615 5616 5616 5617 5618 5618 5618 5619 5621 5621 5622 5622 5623 5624 5624 5625 5626 5627 5627 5628 5629 5630 5632 5633 5635 5636 5638 5639 5640 5641
5607 5607 5606 5606 5606 5605 5605 5605 5605 5605 5604 5604 5604 5604 5604 5604 5605 5605 5605 5605 5605 5605 5605 5606 5606 5607 5608 5608 5608 5608 5609 5609 5609 5609 5609 5610 5611 5611 5612 5612 5613 5613 5614 5614 5615 5615 5617 5618 5618 5618 5619 5620 5621 5622 5623 5623 5623 5624 5625 5626 5628 5629 5630 5632 5633 5635 5636 5638 5638
5605 5605 5604 5604 5603 5603 5603 5603 5603 5603 5602 5602 5602 5601 5601 5601 5602 5602 5602 5602 5603 5603 5603 5603 5604 5604 5605 5605 5606 5606 5606 5607 5607 5607 5607 5607 5607 5608 5608 5609 5609 5610 5610 5611 5612 5613 5613 5614 5615 5616 5616 5617 5618 5618 5619 5620 5621 5622 5623 5624 5625 5626 5628 5629 5630 5632 5633 5634 5635
5604 5603 5603 5602 5601 5601 5600 5600 5600 5600 5600 5599 5599 5599 5598 5598 5598 5598 5599 5599 5599 5600 5600 5600 5601 5601 5602 5602 5603 5603 5603 5604 5604 5604 5605 5605 5605 5605 5605 5606 5606 5607 5607 5608 5608 5610 5611 5612 5612 5613 5614 5615 5615 5616 5617 5617 5618 5619 5620 5621 5623 5623 5625 5626 5628 5629 5630 5631 5632
5602 5601 5601 5600 5599 5598 5598 5598 5598 5597 5597 5597 5597 5596 5596 5596 5595 5595 5596 5596 5596 5596 5597 5597 5598 5598 5598 5598 5599 5599 5600 5600 5601 5601 5601 5602 5603 5603 5603 5603 5603 5603 5604 5605 5606 5608 5608 5609 5610 5611 5612 5612 5612 5613 5614 5615 5616 5617 5618 5619 5620 5621 5622 5623 5624 5626 5627 5628 5629
5600 5599 5598 5598 5597 5596 5596 5595 5595 5594 5594 5594 5594 5593 5593 5593 5593 5593 5593 5593 5593 5593 5593 5594 5594 5595 5595 5595 5596 5596 5596 5597 5597 5598 5598 5598 5599 5600 5600 5600 5600 5600 5601 5602 5603 5604 5606 5607 5608 5608 5608 5608 5609 5610 5611 5612 5613 5614 5615 5616 5617 5618 5619 5620 5621 5622 5624 5625 5626
5597 5597 5596 5595 5595 5594 5593 5593 5592 5592 5591 5591 5591 5591 5590 5590 5590 5590 5589 5589 5589 5589 5590 5590 5591 5591 5592 5592 5593 5593 5593 5593 5594 5594 5594 5595 5596 5596 5597 5598 5598 5598 5599 5599 5600 5601 5602 5603 5603 5604 5604 5605 5606 5607 5608 5609 5610 5611 5612 5613 5613 5614 5615 5616 5618 5619 5620 5621 5622
5595 5594 5593 5593 5592 5592 5591 5590 5590 5589 5588 5588 5588 5588 5587 5587 5587 5587 5587 5586 5586 5586 5586 5587 5587 5588 5588 5589 5590 5590 5590 5591 5591 5591 5591 5592 5592 5593 5593 5594 5595 5596 5597 5597 5597 5598 5598 5599 5600 5601 5602 5602 5603 5604 5605 5606 5607 5608 5608 5609 5610 5611 5612 5613 5614 5615 5617 5618 5618
5592 5591 5591 5590 5589 5589 5588 5588 5587 5586 5586 5585 5585 5584 5584 5584 5584 5584 5583 5583 5583 5583 5583 5583 5583 5584 5584 5585 5586 5587 5588 5588 5588 5588 5588 5589 5589 5590 5590 5591 5591 5592 5593 5594 5595 5595 5595 5596 5597 5598 5599 5599 5600 5601 5602 5603 5603 5604 5605 5606 5607 5608 5609 5610 5611 5612 5613 5614 5615
5590 5588 5588 5587 5586 5586 5585 5585 5584 5584 5583 5583 5582 5582 5582 5581 5581 5581 5581 5580 5580 5580 5580 5580 5580 5580 5581 5582 5583 5583 5584 5585 5585 5586 5586 5586 5587 5587 5587 5588 5588 5589 5590 5591 5592 5592 5593 5593 5594 5595 5596 5597 5597 5598 5599 5599 5600 5601 5602 5603 5603 5605 5606 5607 5608 5609 5610 5611 5612
5587 5586 5585 5584 5583 5583 5582 5582 5582 5581 5581 5580 5579 5579 5579 5578 5578 5578 5578 5578 5577 5577 5577 5577 5577 5577 5577 5578 5578 5579 5580 5581 5582 5583 5583 5583 5584 5584 5584 5585 5585 5586 5587 5588 5589 5589 5590 5591 5592 5592 5593 5593 5594 5595 5596 5597 5597 5598 5598 5599 5600 5601 5602 5603 5604 5605 5606 5607 5608
5584 5583 5582 5581 5580 5580 5579 5579 5578 5578 5578 5578 5577 5577 5576 5576 5576 5575 5575 5575 5574 5574 5574 5574 5573 5573 5574 5574 5575 5575 5576 5577 5578 5579 5580 5580 5581 5581 5582 5582 5583 5583 5584 5585 5586 5587 5587 5587 5588 5589 5590 5590 5591 5592 5593 5594 5594 5595 5595 5596 5597 5598 5598 5599 5600 5601 5602 5603 5603
5581 5580 5579 5578 5577 5577 5576 5576 5575 5575 5575 5575 5574 5574 5573 5573 5573 5573 5572 5572 5572 5572 5571 5571 5571 5571 5571 5571 5571 5572 5572 5573 5574 5575 5576 5577 5578 5578 5579 5579 5580 5580 5581 5582 5583 5583 5584 5585 5585 5586 5587 5588 5588 5589 5589 5590 5591 5592 5592 5593 5594 5594 5595 5596 5597 5598 5598 5599 5600